Dewpoint
66 67 67 66 67 68 67 68 69 68 67 69 67 66 66 68 69 70 70 68 70 71 70 69 69 70 67 63 63 62 61 60 57 56 55 57 64 66 65 64 64 64 63
66 68 67 67 67 66 68 68 69 69 69 69 68 68 66 66 68 70 70 67 69 69 70 70 70 69 70 70 66 65 62 63 61 63 61 60 62 63 65 66 66 62 60
65 65 65 66 66 67 68 68 69 69 70 69 68 68 67 66 68 69 70 69 68 68 69 69 70 70 70 68 68 65 65 67 67 66 65 63 62 63 64 67 67 66 65
63 64 65 66 66 66 68 69 69 70 70 69 69 68 68 67 66 67 68 69 68 68 69 70 70 70 71 71 71 71 70 69 66 65 63 61 61 61 61 61 62 62 60
64 63 65 68 68 68 69 70 70 70 70 70 69 69 69 67 64 66 66 66 68 68 68 70 70 71 71 72 70 71 71 69 66 63 61 60 59 59 60 60 62 63 64
65 65 66 69 69 70 70 70 71 71 70 70 69 69 68 67 64 64 65 65 66 67 68 69 70 71 71 71 70 70 71 71 72 68 64 63 68 68 66 66 65 65 65
67 67 67 70 70 71 71 71 71 71 71 71 70 69 69 70 66 64 65 65 63 66 69 69 68 65 69 69 69 70 70 69 69 71 71 71 70 72 72 73 70 70 69
68 68 69 70 71 71 71 72 72 71 71 71 70 71 71 71 68 67 65 67 67 68 68 68 70 69 69 67 68 68 69 70 72 71 71 71 71 72 72 73 73 73 72
68 69 70 70 70 71 71 71 71 71 71 71 70 71 71 71 68 68 67 67 67 69 69 70 70 70 70 69 69 69 69 69 66 67 69 69 70 70 70 71 70 70 69
67 69 70 71 71 71 71 72 72 71 70 69 69 71 71 72 71 68 68 68 66 66 69 71 70 69 70 69 70 69 70 68 68 69 71 72 69 71 69 70 72 70 70
66 66 69 70 71 71 72 72 72 71 69 71 69 70 71 71 72 68 66 69 66 65 64 63 65 66 68 68 67 70 70 70 71 72 73 73 74 73 73 74 75 74 72
67 67 69 70 69 69 72 72 71 71 71 71 71 70 70 71 70 69 66 67 69 67 66 64 67 68 66 66 67 69 69 69 71 71 71 71 71 71 72 74 75 75 73
68 69 69 70 70 70 71 71 71 72 69 70 69 69 68 69 71 70 67 66 67 69 69 69 69 69 68 68 67 68 67 70 71 71 72 72 72 73 74 74 73 74 73
69 69 70 70 70 69 70 71 70 69 69 67 68 67 68 68 69 70 71 67 65 67 69 70 71 71 71 72 72 71 71 71 71 72 72 72 73 73 72 72 71 70 67
69 69 69 70 70 70 70 69 69 69 68 68 67 67 67 67 68 70 71 72 71 70 70 71 71 71 71 72 72 73 73 74 72 72 72 71 70 71 71 71 69 67 62
67 67 67 67 69 69 69 70 63 65 64 65 67 68 69 69 71 70 71 71 70 70 71 70 71 72 72 72 73 73 74 73 73 71 70 71 71 71 69 68 65 61 61
69 69 70 70 68 69 70 69 68 65 63 63 64 66 68 67 69 69 68 66 66 70 72 71 71 72 72 73 73 72 72 73 73 72 72 71 70 68 66 63 60 61 60
66 64 65 65 65 66 67 67 69 69 68 67 62 64 63 64 66 67 66 67 68 66 72 73 73 74 73 72 72 72 71 71 70 70 69 68 65 63 62 60 60 60 60
64 66 66 65 66 66 64 67 69 69 68 69 70 61 56 56 60 61 62 72 72 72 71 72 72 70 70 70 69 69 68 68 68 67 64 63 62 61 61 60 59 60 59
57 58 61 66 67 67 70 69 69 69 69 69 67 68 64 62 66 66 65 68 71 73 72 71 69 68 68 67 66 66 65 64 63 62 61 60 61 61 60 60 59 60 60
51 54 56 62 62 64 65 67 66 67 69 69 69 66 64 69 70 68 68 69 69 69 68 68 67 66 64 64 64 63 62 61 60 60 60 61 61 60 61 61 60 60 60
51 51 54 57 60 59 58 57 60 63 64 66 67 63 61 64 65 65 65 64 62 62 62 64 63 63 62 63 63 62 61 60 60 61 61 62 62 62 61 61 61 60 60
50 52 53 53 54 58 61 58 57 58 60 62 63 62 62 63 62 61 60 59 59 58 57 58 59 58 57 57 57 58 59 61 62 62 62 62 62 61 61 60 60 60 59
53 53 54 56 56 55 55 56 58 62 62 62 61 62 61 60 59 58 56 55 53 53 52 52 52 51 51 51 50 49 47 46 49 56 60 61 62 61 61 60 59 59 59
47 47 47 47 49 50 53 54 55 55 54 53 56 57 56 56 55 54 53 52 51 49 48 47 47 47 47 46 46 44 42 38 41 43 49 56 58 60 61 60 58 58 58
42 42 42 42 42 42 42 42 42 42 42 42 43 45 47 48 49 49 48 47 47 46 45 44 44 42 41 38 35 35 36 38 42 41 46 54 57 59 61 61 59 59 58
Wind_Speed
33 30 29 29 28 25 24 22 21 19 18 18 17 17 18 17 16 15 14 11 12 11 11 10 12 10 11 9 9 10 10 10 13 14 13 11 11 13 15 13 14 15 17
32 30 30 28 27 27 26 24 22 21 21 20 19 18 19 19 17 17 17 15 16 15 14 14 14 13 14 13 12 11 12 11 14 17 17 17 17 15 16 16 17 19 20
32 34 33 32 30 28 27 25 23 22 22 22 20 20 20 20 18 18 17 16 16 16 16 17 15 15 15 14 14 14 15 15 16 18 20 18 18 16 16 17 16 18 19
34 34 32 32 32 31 27 25 25 24 23 23 22 22 21 21 20 20 19 18 18 17 17 18 17 18 18 17 17 17 16 17 17 18 20 20 18 17 16 20 19 17 19
32 35 32 30 29 29 27 26 25 24 24 23 23 23 22 21 21 22 21 20 20 19 19 18 19 20 20 19 18 17 16 17 18 19 20 19 19 18 18 19 24 23 20
31 34 31 29 29 29 28 27 25 25 24 23 25 24 24 23 23 23 22 22 21 21 20 21 21 18 20 23 24 26 23 18 20 21 23 23 20 20 22 22 24 27 29
31 31 30 29 29 29 29 28 27 26 25 25 24 24 25 25 23 25 27 25 22 21 21 21 22 22 22 22 21 26 28 30 30 26 26 25 25 21 22 23 25 26 28
29 29 29 30 29 27 27 28 27 26 25 24 25 24 24 25 24 27 26 25 24 23 22 22 23 23 21 21 22 22 22 21 21 21 25 25 24 21 19 20 22 24 24
32 32 32 30 30 28 28 27 26 25 24 25 25 25 25 25 25 29 25 24 25 26 25 25 25 24 24 23 24 25 25 24 23 25 28 30 30 28 27 23 20 21 21
34 33 29 28 28 29 27 26 25 24 26 24 25 25 26 25 24 27 28 24 24 25 23 24 27 29 24 22 24 25 25 24 23 23 22 17 21 20 24 20 20 20 19
28 29 27 27 27 26 24 24 24 24 22 23 23 23 24 24 24 27 30 26 25 23 24 23 23 27 33 35 29 26 25 19 22 20 21 19 16 15 16 15 16 18 17
25 26 25 25 26 25 24 23 23 22 22 21 22 21 22 23 24 23 31 35 25 24 23 21 19 15 22 27 26 25 26 27 22 20 20 18 18 18 15 14 15 9 13
23 23 24 25 25 21 23 23 22 22 21 23 22 22 21 20 21 30 28 32 36 26 22 19 10 3 12 16 22 23 21 17 18 19 19 19 16 14 13 8 8 11 15
23 23 22 23 22 21 20 21 21 22 23 22 22 21 20 19 19 18 21 20 27 22 28 24 20 15 12 14 11 14 15 18 19 17 17 16 12 7 9 9 8 12 15
19 20 19 18 19 18 17 14 18 18 17 20 19 18 19 19 19 17 15 16 17 21 19 18 19 19 19 18 17 19 18 15 16 18 14 11 10 10 9 7 8 13 11
19 17 17 17 18 16 17 10 3 3 7 5 4 4 17 7 6 11 13 14 3 9 15 17 15 14 15 15 14 12 12 14 14 11 11 12 10 9 10 10 11 8 7
16 18 16 15 14 13 10 10 9 7 6 7 11 9 11 7 3 6 7 8 6 9 15 15 15 15 13 10 10 12 11 10 11 11 11 10 9 10 10 11 7 5 8
5 18 6 7 15 14 13 13 8 3 2 7 6 12 9 13 11 8 8 9 7 7 10 12 12 11 9 9 9 8 7 8 9 12 13 12 11 11 10 9 8 8 7
11 18 5 3 6 13 6 4 5 2 4 7 7 7 3 2 6 9 12 13 15 14 12 10 9 7 7 8 8 8 9 12 12 10 12 11 11 10 9 10 8 3 3
6 5 3 2 9 6 5 5 4 9 9 10 14 16 3 4 6 8 9 10 8 9 9 10 10 9 9 9 9 10 11 9 10 11 11 10 9 10 11 11 10 7 9
8 8 7 3 7 13 11 10 2 6 9 19 22 5 6 10 12 10 9 6 5 4 6 7 7 6 7 8 8 8 9 10 10 10 9 9 10 11 8 9 8 10 10
11 8 6 3 1 4 4 6 12 14 13 13 9 5 7 7 8 9 10 7 6 6 7 6 5 8 9 6 5 8 8 9 9 8 7 9 9 9 9 11 11 11 10
12 12 10 6 5 3 5 11 11 10 8 6 3 5 8 6 7 8 8 9 8 8 7 7 5 4 3 2 3 4 7 7 7 6 8 9 10 9 9 10 11 11 11
11 11 10 13 11 9 6 9 5 6 7 1 2 3 3 3 4 6 7 8 9 10 9 8 7 6 4 4 4 4 4 7 10 11 11 11 10 10 11 10 11 10 10
12 11 12 12 11 10 10 12 13 12 12 12 9 7 6 4 5 4 6 7 9 10 10 9 9 9 10 10 12 11 12 9 7 12 13 14 13 11 12 12 12 12 12
19 18 16 15 14 13 13 14 15 14 14 14 14 15 13 13 11 7 8 9 10 12 13 12 12 12 12 14 16 16 15 16 12 12 10 11 14 14 9 13 14 13 13
Wind_Direction
201 201 205 208 211 213 219 221 222 223 216 219 217 221 219 217 213 215 228 236 216 224 234 230 227 242 248 240 233 246 251 254 267 275 279 284 259 271 283 270 255 258 258
200 199 201 206 208 210 215 218 217 217 217 217 214 217 220 221 219 217 221 225 224 229 232 233 233 229 227 245 254 247 259 260 263 272 277 281 274 272 270 277 275 276 274
199 200 203 205 207 211 212 215 213 215 217 219 215 215 219 221 220 220 224 226 230 230 231 232 233 234 235 243 237 248 241 241 249 260 275 280 281 284 281 275 268 271 269
195 201 202 202 204 207 210 210 212 212 214 216 216 217 220 223 223 225 225 229 232 232 232 233 233 234 238 237 239 243 249 261 263 260 269 275 275 281 275 281 283 274 280
193 199 202 202 201 203 204 206 209 211 214 215 215 217 220 223 222 222 226 229 231 234 238 236 235 238 240 241 244 240 246 246 255 263 269 274 278 280 284 294 295 291 286
197 200 198 198 198 200 201 202 203 208 211 212 217 217 219 224 223 219 222 229 232 234 238 240 244 241 238 242 246 253 259 260 256 266 274 277 281 278 277 281 291 296 297
199 198 197 196 200 199 198 199 202 205 208 211 215 217 219 223 226 218 217 230 236 234 236 239 244 243 232 246 243 239 248 252 250 258 266 264 275 279 284 286 284 286 285
197 197 198 194 198 200 200 199 200 204 206 208 212 217 220 223 221 219 218 225 235 243 243 238 241 249 252 251 252 254 253 252 242 240 248 261 264 271 275 282 289 291 288
197 196 196 195 194 197 201 201 200 203 206 211 214 216 219 226 218 216 213 228 237 241 243 244 244 246 245 240 248 258 261 262 266 258 256 262 265 264 265 279 280 279 281
199 200 195 193 195 195 197 199 199 202 209 212 216 218 222 227 219 214 208 225 233 239 239 241 243 247 251 240 242 252 259 263 270 275 276 263 256 258 256 251 264 273 281
197 197 195 195 197 195 193 195 197 201 207 211 214 220 224 223 230 211 208 221 231 234 241 246 244 229 232 241 239 250 258 273 272 272 274 276 278 272 264 246 250 268 268
196 196 190 192 197 195 194 195 199 201 207 209 216 222 224 229 225 218 211 213 227 234 241 245 247 225 220 231 237 245 252 259 266 270 269 269 270 271 281 283 275 277 245
191 191 187 188 198 189 192 194 197 200 208 211 214 221 226 223 226 219 215 214 224 232 239 244 268 239 228 233 240 244 247 257 254 256 256 263 265 267 272 276 273 272 271
183 188 185 185 192 200 192 199 205 204 208 216 215 219 220 222 222 220 212 214 225 226 239 251 255 264 268 266 268 240 237 246 250 251 252 258 270 259 255 252 265 274 291
180 185 181 183 184 190 203 201 209 216 215 214 220 218 217 220 222 220 224 210 215 217 222 227 232 232 239 243 246 249 252 252 245 251 251 253 255 252 248 249 257 277 286
169 167 171 173 170 187 186 180 86 52 354 303 243 252 229 213 96 186 213 244 246 160 202 228 220 223 226 233 239 239 229 232 232 234 238 242 244 249 256 261 264 273 295
100 122 128 134 155 159 147 163 191 178 217 290 286 247 257 289 167 194 224 244 227 193 228 228 235 234 239 239 244 246 236 223 221 225 237 247 254 257 249 256 256 269 259
105 91 142 151 138 144 154 156 161 212 10 256 244 263 247 249 230 217 198 173 217 214 223 228 234 238 224 226 231 220 212 219 218 230 236 230 244 250 251 248 248 248 250
35 56 305 154 104 126 158 177 231 181 40 312 248 235 184 137 197 204 192 232 231 220 212 212 212 196 207 210 211 216 225 236 244 245 248 248 249 246 242 251 247 240 244
53 91 310 289 113 66 125 97 312 308 311 258 254 252 200 127 158 175 195 218 227 229 208 206 204 196 209 206 209 218 225 223 231 233 244 243 243 246 244 246 242 202 203
352 1 330 212 140 169 180 155 226 234 243 240 229 187 201 192 170 163 178 192 220 226 196 204 202 208 211 221 238 238 241 247 239 243 236 242 239 241 241 260 251 246 244
340 349 330 320 340 168 177 202 205 217 218 223 216 183 207 230 182 158 146 139 103 79 54 36 47 39 33 12 320 286 274 273 266 262 250 247 243 246 243 243 248 248 233
337 340 330 299 268 256 224 221 228 215 210 227 216 187 206 182 146 135 139 130 123 108 87 75 67 70 51 357 326 305 289 276 282 276 261 255 253 248 243 243 241 244 235
352 339 344 334 348 293 252 229 204 51 350 68 175 220 181 150 136 138 125 114 101 96 95 86 78 59 35 352 339 321 314 326 305 279 249 251 250 251 248 247 255 245 248
35 32 24 19 14 5 25 50 57 54 50 42 38 46 70 87 112 104 99 101 101 94 85 85 80 72 57 41 20 2 348 340 302 300 284 274 270 238 236 248 246 240 244
51 52 49 46 43 44 51 53 56 59 60 55 52 47 46 51 51 72 87 94 96 90 87 76 74 76 64 45 18 4 0 349 340 316 282 268 271 271 263 241 247 254 270